Back to catalog

STARLINK-6172

AliveCommunicationsVLEO
NORAD 57130·PAYLOAD·🇺🇸 United States

Launched Jun 23, 2023 from Cape Canaveral Space Force Station

Loading…

Next Passes (next 24 hours)

TLE

FreshSource: CelesTrak SupGP

Epoch: Sep 14, 2026, 20:45 UTC

1 57130C 23090AF  26257.86506944 -.00019233  00000+0 -69666-3 0  2576
2 57130  43.0007 292.9446 0002184 272.4824 211.6367 15.27584869    14

Track STARLINK-6172 in real time with AllMySat

Download on the App Store